FW3173 Weather Reports


time (UTC)temp
F
wind
direction
speed
knots
gust
knots
rain 1hr
in
rain 24hr
in
rain mn
in
humidity
%
barometer
mb
20260505031524 44 231 6.1 13.9 0.00 0.32 0.00 85 1006.9
20260505030026 44 232 5.2 13.0 0.00 0.32 0.00 85 1006.7
20260505024518 45 227 6.1 11.3 0.00 0.33 0.32 84 1006.5
20260505023017 45 230 6.1 12.2 0.00 0.33 0.32 84 1006.4
20260505021517 45 228 6.1 13.9 0.00 0.33 0.32 83 1006.3
20260505020015 46 225 7.8 14.8 0.00 0.33 0.32 83 1006.2
20260505014515 46 231 7.0 14.8 0.00 0.33 0.32 83 1006.0
20260505013012 46 220 7.0 17.4 0.00 0.33 0.32 82 1005.8
20260505011514 46 200 6.1 14.8 0.00 0.33 0.32 82 1005.7
20260505010009 46 215 7.0 13.9 0.00 0.33 0.32 82 1005.6
20260505004519 46 208 7.8 13.0 0.00 0.34 0.32 82 1005.6
20260505003107 45 199 5.2 10.4 0.00 0.34 0.32 82 1005.5
20260505001504 46 213 4.3 11.3 0.00 0.34 0.32 81 1005.4
20260505000005 46 206 5.2 13.9 0.00 0.35 0.32 80 1005.2
20260504234501 46 187 6.1 13.0 0.00 0.35 0.32 80 1004.8
20260504233058 47 240 5.2 13.9 0.00 0.35 0.32 79 1004.5
20260504231605 47 279 8.7 16.5 0.00 0.35 0.32 78 1004.3
20260504230055 47 234 9.6 18.2 0.00 0.35 0.32 72 1004.4
20260504224604 48 209 7.8 18.2 0.00 0.42 0.32 68 1004.1
20260504223052 47 211 6.1 13.0 0.00 0.42 0.32 72 1004.0
20260504221600 48 216 5.2 13.0 0.00 0.42 0.32 71 1003.7
20260504220053 50 236 7.0 13.9 0.00 0.42 0.32 67 1003.7
20260504214551 50 260 7.8 13.9 0.00 0.54 0.32 68 1003.6
20260504213052 51 218 4.3 11.3 0.00 0.54 0.32 67 1003.6
20260504211544 51 208 4.3 11.3 0.00 0.54 0.32 68 1003.6
20260504210052 50 239 6.1 11.3 0.00 0.54 0.32 70 1003.5
20260504204618 49 279 4.3 8.7 0.00 0.59 0.32 72 1003.2
20260504203037 49 246 3.5 11.3 0.00 0.59 0.32 72 1003.2
20260504201534 49 270 6.1 16.5 0.00 0.59 0.32 71 1003.0
20260504200038 49 239 7.0 14.8 0.00 0.59 0.32 70 1002.9
20260504194536 49 265 8.7 18.2 0.00 0.65 0.32 73 1002.6
20260504193031 48 199 7.8 14.8 0.00 0.65 0.32 75 1002.6
20260504191530 47 213 7.8 18.2 0.00 0.65 0.32 78 1002.4
20260504190030 49 298 12.2 20.0 0.00 0.65 0.32 73 1002.0
20260504184525 49 270 11.3 21.7 0.00 0.70 0.32 73 1001.7
20260504183022 49 229 11.3 24.3 0.00 0.70 0.32 76 1001.6
20260504181518 48 270 12.2 22.6 0.00 0.70 0.32 78 1001.4
20260504180016 47 239 11.3 22.6 0.00 0.70 0.32 79 1001.3
20260504174514 47 275 13.0 26.9 0.00 0.70 0.32 81 1001.0
20260504173009 45 200 12.2 22.6 0.00 0.70 0.32 83 1000.8
20260504171606 46 228 13.0 24.3 0.00 0.70 0.32 87 1000.6
20260504081530 37 270 19.1 31.3 0.02 0.50 0.13 99 983.0
20260504044549 39 275 4.3 11.3 0.03 0.43 0.05 98 976.7
20260504043047 39 285 4.3 8.7 0.05 0.43 0.05 97 976.6
20260504041545 39 295 2.6 5.2 0.04 0.42 0.04 97 976.5
20260504040042 39 350 1.7 7.0 0.02 0.40 0.02 97 976.5
20260504034542 39 44 0.9 6.1 0.02 0.39 0.02 97 976.6
20260504033040 40 45 1.7 6.1 0.00 0.38 0.00 97 976.7